Weather History for KPSO - April, 2013

Change the Weather History Date:

Sunday, April 28, 2013

  Actual Average (KDRO) Record (KDRO)
Temperature  
Mean Temperature 50 °F 48 °F  
Max Temperature 70 °F 64 °F - ()
Min Temperature 30 °F 31 °F - ()
Degree Days  
Heating Degree Days 15 17  
Month to date heating degree days 574  
Since 1 July heating degree days 6603  
Cooling Degree Days 0 0  
Month to date cooling degree days 0  
Year to date cooling degree days 0  
Moisture  
Dew Point 11 °F    
Average Humidity 25    
Maximum Humidity 51    
Minimum Humidity 8    
Precipitation  
Precipitation 0.00 in 0.03 in - ()
Month to date precipitation 1.05  
Year to date precipitation 4.58  
Sea Level Pressure  
Sea Level Pressure 30.16 in    
Wind  
Wind Speed 3 mph (SW)    
Max Wind Speed 17 mph    
Max Gust Speed 26 mph    
Visibility 10 miles    
Events Thunderstorm    
T = Trace of Precipitation, MM = Missing Value Source: NWS Daily Summary

Daily Weather History Graph

Daily Weather History Graph

Search for Another Location

Airport or City:

Trip Planner

Search our weather history database for the weather conditions in past years. The results will help you decide how hot, cold, wet, or windy it might be!

Date:

Astronomy

Apr. 28, 2013 Rise Set
Actual Time 6:16 AM MDT 7:55 PM MDT
Civil Twilight 5:48 AM MDT 8:23 PM MDT
Nautical Twilight 5:15 AM MDT 8:56 PM MDT
Astronomical Twilight 4:39 AM MDT 9:32 PM MDT
Moon 11:26 PM MDT (4/28) 8:38 AM MDT (4/28)
Length of Visible Light 14h 34m
Length of Day
13h 38m
Waning Gibbous, 88% of the Moon is Illuminated
Apr 28
Waning Gibbous
May 2
Last Quarter
May 9
New
May 17
First Quarter
May 24
Full

Hourly Weather History & Observations

Time (MDT) Temp. Windchill Dew Point Humidity Pressure Visibility Wind Dir Wind Speed Gust Speed Precip Events Conditions
12:15 AM 37.0 °F - 11.5 °F 35% 30.26 in 10.0 mi Calm Calm - N/A   Clear
12:35 AM 36.7 °F - 11.5 °F 35% 30.26 in 10.0 mi Calm Calm - N/A   Clear
12:55 AM 38.7 °F - 10.0 °F 31% 30.26 in 10.0 mi Calm Calm - N/A   Clear
1:15 AM 35.8 °F - 11.8 °F 37% 30.25 in 10.0 mi Calm Calm - N/A   Clear
1:35 AM 33.8 °F 30.8 °F 14.4 °F 45% 30.25 in 10.0 mi WNW 3.5 mph - N/A   Clear
1:55 AM 36.1 °F - 10.9 °F 35% 30.24 in 10.0 mi Calm Calm - N/A   Clear
2:15 AM 35.2 °F - 12.0 °F 38% 30.24 in 10.0 mi Calm Calm - N/A   Clear
2:35 AM 34.9 °F - 16.7 °F 48% 30.23 in 10.0 mi Calm Calm - N/A   Clear
2:55 AM 32.9 °F 29.8 °F 12.9 °F 44% 30.23 in 10.0 mi NW 3.5 mph - N/A   Clear
3:15 AM 32.2 °F - 13.6 °F 46% 30.22 in 10.0 mi Calm Calm - N/A   Clear
3:35 AM 32.4 °F - 12.0 °F 43% 30.22 in 10.0 mi Calm Calm - N/A   Clear
3:55 AM 33.6 °F - 10.9 °F 39% 30.22 in 10.0 mi Calm Calm - N/A   Clear
4:15 AM 31.1 °F - 13.3 °F 48% 30.21 in 10.0 mi Calm Calm - N/A   Clear
4:35 AM 31.3 °F - 13.6 °F 48% 30.22 in 10.0 mi Calm Calm - N/A   Clear
4:55 AM 30.4 °F - 12.7 °F 48% 30.21 in 10.0 mi Calm Calm - N/A   Clear
5:15 AM 30.6 °F - 13.6 °F 50% 30.21 in 10.0 mi Calm Calm - N/A   Clear
5:35 AM 30.4 °F - 14.2 °F 51% 30.21 in 10.0 mi Calm Calm - N/A   Clear
5:55 AM 30.7 °F - 13.3 °F 48% 30.21 in 10.0 mi Calm Calm - N/A   Clear
6:15 AM 32.0 °F - 14.2 °F 48% 30.22 in 10.0 mi Calm Calm - N/A   Clear
6:35 AM 31.8 °F - 14.5 °F 49% 30.22 in 10.0 mi Calm Calm - N/A   Clear
7:15 AM 33.4 °F - 14.5 °F 46% 30.22 in 10.0 mi Calm Calm - N/A   Clear
7:35 AM 39.2 °F - 19.0 °F 44% 30.22 in 10.0 mi Calm Calm - N/A   Clear
7:55 AM 44.1 °F - 13.8 °F 29% 30.22 in 10.0 mi Calm Calm - N/A   Clear
8:15 AM 45.9 °F - 15.1 °F 29% 30.22 in 10.0 mi Calm Calm - N/A   Clear
8:35 AM 47.8 °F - 14.4 °F 26% 30.22 in 10.0 mi Calm Calm - N/A   Clear
8:55 AM 50.9 °F - 14.0 °F 23% 30.22 in 10.0 mi Calm Calm - N/A   Clear
9:15 AM 53.1 °F - 14.7 °F 22% 30.22 in 10.0 mi Calm Calm - N/A   Clear
9:35 AM 54.1 °F - 13.1 °F 20% 30.21 in 10.0 mi SSW 4.6 mph - N/A   Clear
9:55 AM 56.3 °F - 11.8 °F 17% 30.21 in 10.0 mi SSW 4.6 mph - N/A   Clear
10:15 AM 58.1 °F - 9.3 °F 14% 30.21 in 10.0 mi South 4.6 mph - N/A   Clear
10:35 AM 59.7 °F - 10.8 °F 15% 30.21 in 10.0 mi Calm Calm - N/A Thunderstorm Clear
10:55 AM 61.5 °F - 8.2 °F 12% 30.20 in 10.0 mi Calm Calm - N/A   Clear
11:15 AM 61.5 °F - 6.1 °F 11% 30.20 in 10.0 mi SSW 5.8 mph - N/A   Clear
11:35 AM 62.6 °F - 6.6 °F 11% 30.19 in 10.0 mi Calm Calm - N/A   Clear
11:55 AM 63.3 °F - 6.6 °F 11% 30.19 in 10.0 mi SSW 8.1 mph - N/A   Clear
12:15 PM 63.7 °F - 5.4 °F 10% 30.19 in 10.0 mi Calm Calm - N/A   Clear
12:35 PM 64.9 °F - 4.6 °F 9% 30.18 in 10.0 mi WSW 8.1 mph - N/A   Clear
12:55 PM 67.1 °F - 7.0 °F 9% 30.17 in 10.0 mi Calm Calm - N/A   Clear
1:15 PM 67.3 °F - 5.4 °F 9% 30.16 in 10.0 mi SW 6.9 mph - N/A   Clear
1:35 PM 66.0 °F - 4.6 °F 9% 30.15 in 10.0 mi NNW 3.5 mph - N/A   Clear
1:55 PM 66.6 °F - 5.4 °F 9% 30.14 in 10.0 mi ESE 4.6 mph - N/A   Clear
2:15 PM 68.0 °F - 5.4 °F 9% 30.14 in 10.0 mi SW 10.4 mph 18.4 mph N/A Thunderstorm Thunderstorm
2:35 PM 68.2 °F - 6.3 °F 9% 30.13 in 10.0 mi West 5.8 mph 18.4 mph N/A   Clear
2:55 PM 67.8 °F - 5.9 °F 9% 30.12 in 10.0 mi West 10.4 mph - N/A   Clear
3:15 PM 68.4 °F - 5.9 °F 9% 30.11 in 10.0 mi South 8.1 mph - N/A   Clear
3:35 PM 69.6 °F - 6.1 °F 8% 30.10 in 10.0 mi West 10.4 mph 16.1 mph N/A   Scattered Clouds
3:55 PM 69.1 °F - 5.4 °F 8% 30.09 in 10.0 mi WSW 12.7 mph 18.4 mph N/A   Scattered Clouds
4:15 PM 70.0 °F - 6.8 °F 9% 30.08 in 10.0 mi SW 15.0 mph 19.6 mph N/A   Scattered Clouds
4:35 PM 69.6 °F - 6.1 °F 8% 30.07 in 10.0 mi SW 11.5 mph 18.4 mph N/A   Clear
4:55 PM 70.2 °F - 6.6 °F 8% 30.07 in 10.0 mi South 12.7 mph 26.5 mph N/A   Clear
5:15 PM 69.6 °F - 7.2 °F 9% 30.07 in 10.0 mi SW 13.8 mph 20.7 mph N/A   Scattered Clouds
5:35 PM 69.6 °F - 7.3 °F 9% 30.07 in 10.0 mi SSW 11.5 mph 23.0 mph N/A   Scattered Clouds
5:55 PM 69.3 °F - 8.4 °F 9% 30.06 in 10.0 mi SW 13.8 mph 18.4 mph N/A   Scattered Clouds
6:15 PM 68.5 °F - 7.9 °F 9% 30.06 in 10.0 mi SW 17.3 mph 21.9 mph N/A   Clear
6:35 PM 68.0 °F - 8.8 °F 10% 30.07 in 10.0 mi WSW 13.8 mph 18.4 mph N/A   Clear
6:55 PM 67.3 °F - 8.6 °F 10% 30.06 in 10.0 mi WSW 13.8 mph 19.6 mph N/A   Clear
7:15 PM 66.6 °F - 9.0 °F 11% 30.07 in 10.0 mi WSW 10.4 mph 17.3 mph N/A   Clear
7:35 PM 65.3 °F - 9.7 °F 11% 30.07 in 10.0 mi WSW 9.2 mph - N/A   Clear
7:55 PM 63.5 °F - 10.8 °F 13% 30.07 in 10.0 mi WSW 4.6 mph - N/A   Clear
8:15 PM 61.0 °F - 12.7 °F 15% 30.07 in 10.0 mi Calm Calm - N/A   Clear
8:35 PM 51.8 °F - 17.6 °F 26% 30.08 in 10.0 mi Calm Calm - N/A   Clear
8:55 PM 51.6 °F - 16.5 °F 25% 30.09 in 10.0 mi ENE 4.6 mph - N/A   Clear
9:15 PM 53.4 °F - 15.8 °F 23% 30.09 in 10.0 mi NE 8.1 mph - N/A   Clear
9:35 PM 51.3 °F - 17.1 °F 26% 30.09 in 10.0 mi Calm Calm - N/A   Clear
9:55 PM 49.5 °F - 16.7 °F 27% 30.10 in 10.0 mi ENE 3.5 mph - N/A   Clear
10:15 PM 49.5 °F - 16.7 °F 27% 30.10 in 10.0 mi Calm Calm - N/A   Clear
10:35 PM 48.7 °F - 16.3 °F 28% 30.10 in 10.0 mi NE 4.6 mph - N/A   Clear
10:55 PM 45.3 °F 44.0 °F 18.1 °F 34% 30.10 in 10.0 mi NNE 3.5 mph - N/A   Clear
11:15 PM 42.4 °F - 19.2 °F 39% 30.10 in 10.0 mi Calm Calm - N/A   Clear
11:35 PM 40.6 °F 38.6 °F 20.1 °F 44% 30.10 in 10.0 mi NNE 3.5 mph - N/A   Clear
11:55 PM 42.4 °F - 18.1 °F 38% 30.10 in 10.0 mi Calm Calm - N/A   Clear